When you browse on this site, cookies collect data to enhance your experience and personalize the content and advertising you see.
Visit our Privacy Policy to learn more. By continuing to use the site, you agree to this use of cookies and data.
  • In Hungary
  • List of Countries
  • For 7 days
  • Water Temperature
  • Satellite Maps
  • Weather Map
  • News
  • Weather Widgets
  • user-avatar
    Login

    Hourly Weather Itatka

    Today, 12 December, Wednesday

    Time Temperature Precipitation Wind Pressure Humidity
    00:00 -19°C° 0 mm 2 mps 756 mmHg 83%
    01:00 -19°C° 0 mm 2 mps 756 mmHg 83%
    02:00 -19°C° 0 mm 2 mps 756 mmHg 83%
    03:00 -19°C° 0 mm 2 mps 755 mmHg 83%
    04:00 -18°C° 0 mm 2 mps 755 mmHg 83%
    05:00 -18°C° 0 mm 2 mps 755 mmHg 83%
    06:00 -19°C° 0 mm 2 mps 755 mmHg 83%
    07:00 -18°C° 0 mm 2 mps 755 mmHg 83%
    08:00 -18°C° 0 mm 2 mps 755 mmHg 82%
    09:00 -17°C° 0 mm 2 mps 755 mmHg 82%
    10:00 -16°C° 0 mm 2 mps 754 mmHg 81%
    11:00 -15°C° 0 mm 2 mps 754 mmHg 80%
    12:00 -15°C° 0 mm 3 mps 754 mmHg 79%
    13:00 -13°C° 0 mm 2 mps 754 mmHg 81%
    14:00 -13°C° 0 mm 2 mps 754 mmHg 83%
    15:00 -13°C° 0 mm 2 mps 753 mmHg 84%
    16:00 -13°C° 0 mm 2 mps 753 mmHg 87%
    17:00 -13°C° 0 mm 2 mps 753 mmHg 89%
    18:00 -13°C° 0 mm 2 mps 753 mmHg 93%
    19:00 -12°C° 0 mm 2 mps 753 mmHg 93%
    20:00 -13°C° 0 mm 3 mps 753 mmHg 94%
    21:00 -13°C° 0 mm 3 mps 753 mmHg 94%
    22:00 -12°C° 0 mm 3 mps 752 mmHg 94%
    23:00 -12°C° 0 mm 3 mps 752 mmHg 94%

    Tomorrow, 13 December, Thursday

    Time Temperature Precipitation Wind Pressure Humidity
    00:00 -12°C° 0 mm 3 mps 752 mmHg 94%
    01:00 -12°C° 0.1 mm 3 mps 752 mmHg 95%
    02:00 -12°C° 0.1 mm 3 mps 752 mmHg 95%
    03:00 -12°C° 0.1 mm 3 mps 752 mmHg 95%
    04:00 -10°C° 0.1 mm 3 mps 752 mmHg 95%
    05:00 -10°C° 0.1 mm 3 mps 752 mmHg 95%
    06:00 -10°C° 0.1 mm 3 mps 752 mmHg 95%
    07:00 -10°C° 0.1 mm 3 mps 752 mmHg 95%
    08:00 -10°C° 0.1 mm 3 mps 752 mmHg 95%
    09:00 -10°C° 0.1 mm 3 mps 752 mmHg 95%
    10:00 -9°C° 0.1 mm 3 mps 752 mmHg 94%
    11:00 -9°C° 0.1 mm 3 mps 752 mmHg 94%
    12:00 -9°C° 0.1 mm 3 mps 752 mmHg 93%
    13:00 -10°C° 0 mm 3 mps 752 mmHg 93%
    14:00 -10°C° 0 mm 3 mps 752 mmHg 93%
    15:00 -10°C° 0 mm 3 mps 751 mmHg 93%
    16:00 -12°C° 0 mm 4 mps 752 mmHg 93%
    17:00 -14°C° 0 mm 4 mps 752 mmHg 92%
    18:00 -15°C° 0 mm 4 mps 752 mmHg 92%
    19:00 -16°C° 0.1 mm 4 mps 752 mmHg 92%
    20:00 -17°C° 0.1 mm 4 mps 751 mmHg 92%
    21:00 -18°C° 0.1 mm 4 mps 751 mmHg 92%
    22:00 -19°C° 0.2 mm 4 mps 751 mmHg 93%
    23:00 -19°C° 0.2 mm 4 mps 751 mmHg 94%

    Day after tomorrow, 14 December, Friday

    Time Temperature Precipitation Wind Pressure Humidity
    00:00 -20°C° 0.2 mm 4 mps 750 mmHg 94%
    01:00 -20°C° 0.2 mm 4 mps 750 mmHg 94%
    02:00 -20°C° 0.2 mm 5 mps 750 mmHg 94%
    03:00 -20°C° 0.2 mm 5 mps 749 mmHg 93%
    04:00 -19°C° 0.3 mm 5 mps 749 mmHg 93%
    05:00 -18°C° 0.3 mm 5 mps 749 mmHg 93%
    06:00 -18°C° 0.3 mm 5 mps 749 mmHg 93%
    07:00 -15°C° 0.3 mm 5 mps 749 mmHg 92%
    08:00 -14°C° 0.3 mm 5 mps 749 mmHg 92%
    09:00 -13°C° 0.3 mm 5 mps 749 mmHg 92%
    10:00 -11°C° 0.2 mm 4 mps 749 mmHg 92%
    11:00 -10°C° 0.2 mm 4 mps 749 mmHg 91%
    12:00 -9°C° 0.2 mm 4 mps 748 mmHg 91%
    13:00 -9°C° 0.1 mm 4 mps 749 mmHg 90%
    14:00 -9°C° 0.1 mm 4 mps 749 mmHg 90%
    15:00 -9°C° 0.1 mm 4 mps 749 mmHg 90%
    16:00 -9°C° 0.1 mm 4 mps 749 mmHg 90%
    17:00 -10°C° 0.1 mm 4 mps 749 mmHg 91%
    18:00 -10°C° 0.1 mm 4 mps 750 mmHg 91%
    19:00 -10°C° 0.1 mm 4 mps 750 mmHg 91%
    20:00 -11°C° 0.1 mm 4 mps 749 mmHg 91%
    21:00 -12°C° 0.1 mm 5 mps 749 mmHg 91%
    22:00 -12°C° 0.2 mm 5 mps 749 mmHg 91%
    23:00 -12°C° 0.2 mm 5 mps 749 mmHg 91%

    15 December, Saturday

    Time Temperature Precipitation Wind Pressure Humidity
    00:00 -12°C° 0.2 mm 5 mps 749 mmHg 91%
    01:00 -12°C° 0.1 mm 5 mps 749 mmHg 91%
    02:00 -12°C° 0.1 mm 5 mps 749 mmHg 91%
    03:00 -12°C° 0.1 mm 5 mps 749 mmHg 91%
    04:00 -12°C° 0.1 mm 5 mps 749 mmHg 91%
    05:00 -12°C° 0.1 mm 5 mps 749 mmHg 91%
    06:00 -11°C° 0.1 mm 4 mps 749 mmHg 91%
    07:00 -12°C° 0.1 mm 5 mps 749 mmHg 91%
    08:00 -12°C° 0.1 mm 5 mps 749 mmHg 91%
    09:00 -12°C° 0.1 mm 5 mps 749 mmHg 91%
    10:00 -12°C° 0 mm 5 mps 748 mmHg 91%
    11:00 -12°C° 0 mm 5 mps 748 mmHg 90%
    12:00 -11°C° 0 mm 5 mps 748 mmHg 90%
    13:00 -11°C° 0.1 mm 5 mps 748 mmHg 89%
    14:00 -11°C° 0.1 mm 6 mps 747 mmHg 89%
    15:00 -11°C° 0.1 mm 6 mps 747 mmHg 89%
    16:00 -11°C° 0.4 mm 6 mps 747 mmHg 90%
    17:00 -11°C° 0.4 mm 6 mps 747 mmHg 90%
    18:00 -11°C° 0.4 mm 6 mps 747 mmHg 91%
    19:00 -12°C° 0.4 mm 6 mps 747 mmHg 91%
    20:00 -12°C° 0.4 mm 6 mps 748 mmHg 91%
    21:00 -12°C° 0.4 mm 5 mps 748 mmHg 91%
    22:00 -12°C° 0.3 mm 5 mps 748 mmHg 92%
    23:00 -11°C° 0.3 mm 4 mps 748 mmHg 92%

    16 December, Sunday

    Time Temperature Precipitation Wind Pressure Humidity
    00:00 -12°C° 0.3 mm 4 mps 748 mmHg 92%
    01:00 -12°C° 0.1 mm 4 mps 748 mmHg 93%
    02:00 -12°C° 0.1 mm 3 mps 749 mmHg 93%
    03:00 -12°C° 0.1 mm 3 mps 749 mmHg 94%
    04:00 -13°C° 0.1 mm 3 mps 749 mmHg 94%
    05:00 -13°C° 0.1 mm 3 mps 749 mmHg 95%
    06:00 -12°C° 0.1 mm 2 mps 749 mmHg 95%
    07:00 -12°C° 0.1 mm 2 mps 749 mmHg 95%
    08:00 -13°C° 0.1 mm 2 mps 749 mmHg 96%
    09:00 -13°C° 0.1 mm 2 mps 750 mmHg 96%
    10:00 -13°C° 0.1 mm 2 mps 750 mmHg 96%
    11:00 -13°C° 0.1 mm 2 mps 750 mmHg 96%
    12:00 -13°C° 0.1 mm 2 mps 750 mmHg 95%
    13:00 -13°C° 0.1 mm 2 mps 750 mmHg 95%
    14:00 -14°C° 0.1 mm 2 mps 750 mmHg 96%
    15:00 -12°C° 0.1 mm 1 mps 749 mmHg 96%
    16:00 -12°C° 0.1 mm 1 mps 750 mmHg 96%
    17:00 -13°C° 0.1 mm 1 mps 750 mmHg 96%
    18:00 -13°C° 0.1 mm 1 mps 750 mmHg 96%
    19:00 -14°C° 0.1 mm 1 mps 750 mmHg 96%
    20:00 -14°C° 0.1 mm 1 mps 750 mmHg 96%
    21:00 -14°C° 0.1 mm 1 mps 750 mmHg 96%
    22:00 -15°C° 0 mm 1 mps 750 mmHg 96%
    23:00 -15°C° 0 mm 1 mps 749 mmHg 96%

    17 December, Monday

    Time Temperature Precipitation Wind Pressure Humidity
    00:00 -15°C° 0 mm 0 mps 749 mmHg 96%
    01:00 -15°C° 0.1 mm 0 mps 749 mmHg 96%
    02:00 -16°C° 0.1 mm 0 mps 749 mmHg 96%
    03:00 -16°C° 0.1 mm 0 mps 749 mmHg 97%
    04:00 -16°C° 0 mm 0 mps 749 mmHg 97%
    05:00 -16°C° 0 mm 1 mps 749 mmHg 97%
    06:00 -16°C° 0 mm 1 mps 749 mmHg 97%
    07:00 -16°C° 0 mm 1 mps 749 mmHg 97%
    08:00 -16°C° 0 mm 1 mps 749 mmHg 97%
    09:00 -16°C° 0 mm 1 mps 749 mmHg 97%
    10:00 -15°C° 0 mm 1 mps 749 mmHg 97%
    11:00 -16°C° 0 mm 2 mps 749 mmHg 96%
    12:00 -16°C° 0 mm 2 mps 749 mmHg 96%
    13:00 -15°C° 0 mm 2 mps 750 mmHg 96%
    14:00 -15°C° 0 mm 2 mps 750 mmHg 96%
    15:00 -15°C° 0 mm 3 mps 750 mmHg 96%
    16:00 -15°C° 0 mm 3 mps 750 mmHg 95%
    17:00 -15°C° 0 mm 3 mps 750 mmHg 95%
    18:00 -16°C° 0 mm 4 mps 750 mmHg 95%
    19:00 -15°C° 0 mm 4 mps 750 mmHg 94%
    20:00 -15°C° 0 mm 4 mps 750 mmHg 94%
    21:00 -15°C° 0 mm 4 mps 750 mmHg 94%
    22:00 -15°C° 0.1 mm 4 mps 750 mmHg 93%
    23:00 -15°C° 0.1 mm 4 mps 750 mmHg 92%
    Show more